#timestamp,LO_Frequency,Hit,StdDev 
1598463935.5,286047029.6,P
1598463955.4,286047029.6,P
1598463975.2,286047028.6,P
1598463995.0,286047029.0,Y
1598463995.9,286047029.0,P
1598464015.8,286047002.7,P
1598464035.6,286047000.1,N
1598464055.4,286047000.1,N
1598464075.3,286047002.8,N
1598464095.1,286047002.3,N
1598464115.9,286047002.4,N
1598464135.7,286047002.4,N
1598464155.5,286047001.6,N
1598464175.4,286047001.8,N
1598464195.2,286047003.6,N
1598464215.0,286047004.1,N
1598464215.9,286047004.1,N
1598464235.8,286047003.8,N
1598464255.6,286047001.8,N
1598464275.5,286047004.1,N
1598464295.3,286047003.8,N
1598464315.1,286047004.0,N
1598464335.9,286047003.7,N
1598464355.7,286047003.2,N
1598464375.5,286047003.2,N
1598464395.4,286047003.1,N
1598464415.2,286047003.3,N
1598464435.0,286047003.0,N
1598464436.0,286047003.0,N
1598464455.8,286047005.7,N
1598464475.6,286047005.9,N
1598464495.5,286047005.8,N
1598464515.3,286047003.0,N
1598464535.1,286047005.7,N
1598464555.9,286047004.7,N
1598464575.7,286047004.7,Y
1598464595.6,286047001.9,P
1598464615.4,286047000.1,N
1598464635.2,286047002.2,N
1598464655.1,286047004.2,Y
1598464656.0,286047004.2,P
1598464675.8,286046999.9,N
1598464695.7,286047001.2,N
1598464715.5,286047000.1,N
1598464735.3,286047000.4,N
1598464755.2,286047002.4,N
1598464775.0,286047000.7,N
1598464775.9,286047000.7,N
1598464795.7,286046999.7,N
